Location: Lombard
(41.8800°N, 88.0080°W)
Time: 19:56:40
(UTC-05:00)

ZACube-1 - Pass Details

Date: 19 May 2022
Orbit: 581 x 662 km, 97.6° (Epoch: 29 June)

Event Time Altitude Azimuth Distance (km) Brightness Sun altitude
Rises 03:43:10 0° 33° (NNE) 2,817 ? -16.3°
Reaches altitude 10° 03:46:18 10° 59° (ENE) 1,905 ? -15.9°
Maximum altitude 03:48:29 14° 91° (E) 1,654 ? -15.6°
Drops below altitude 10° 03:50:39 10° 123° (ESE) 1,895 ? -15.3°
Sets 03:53:45 0° 149° (SSE) 2,792 ? -14.9°
